Location: Unspecified
(0.0000°N, 0.0000°E)
Time: 14:27:04
(UTC+00:00)

X-37B - Visible Passes

Search period start: 07 May 2021 00:00
Search period end: 17 May 2021 00:00
Orbit: 1166 x 1202 km, 82.6° (Epoch: 14 February)

Date Brightness Start Highest point End Pass type
(mag) Time Alt. Az. Time Alt. Az. Time Alt. Az.
13 May ? 21:20:52 10° N 21:21:38 14° N 21:21:38 14° N visible
14 May ? 20:59:33 10° N 21:00:59 17° N 21:00:59 17° N visible
15 May ? 20:38:24 10° N 20:40:22 20° NNE 20:40:22 20° NNE visible
16 May ? 20:17:25 10° NNE 20:19:47 22° NNE 20:19:47 22° NNE visible
